When you browse on this site, cookies collect data to enhance your experience and personalize the content and advertising you see.
Visit our Privacy Policy to learn more. By continuing to use the site, you agree to this use of cookies and data.
  • In Österreich
  • Länderverzeichnis
  • Für 7 Tage
  • Wassertemperatur
  • Wetterkarte
  • News
  • Widgets
  • user-avatar
    Anmelden

    Stündliche Wetter Corozal

    Heute, 9 April, Donnerstag

    Zeit Temperatur Niederschläge Wind Luftdruck Luftfeuchtigkeit
    00:00 +25°C° 0 mm 1 m/S 759 mmHg 97%
    01:00 +25°C° 0 mm 1 m/S 758 mmHg 97%
    02:00 +25°C° 0 mm 1 m/S 758 mmHg 98%
    03:00 +25°C° 0 mm 1 m/S 757 mmHg 98%
    04:00 +25°C° 0 mm 1 m/S 758 mmHg 97%
    05:00 +25°C° 0 mm 1 m/S 758 mmHg 97%
    06:00 +25°C° 0 mm 2 m/S 758 mmHg 96%
    07:00 +28°C° 0 mm 2 m/S 759 mmHg 85%
    08:00 +30°C° 0 mm 3 m/S 759 mmHg 73%
    09:00 +33°C° 0 mm 3 m/S 760 mmHg 61%
    10:00 +35°C° 0 mm 3 m/S 759 mmHg 54%
    11:00 +36°C° 0 mm 4 m/S 759 mmHg 47%
    12:00 +38°C° 0 mm 4 m/S 758 mmHg 39%
    13:00 +38°C° 0 mm 4 m/S 757 mmHg 39%
    14:00 +38°C° 0 mm 4 m/S 757 mmHg 38%
    15:00 +37°C° 0 mm 4 m/S 756 mmHg 38%
    16:00 +35°C° 0 mm 4 m/S 756 mmHg 48%
    17:00 +33°C° 0 mm 3 m/S 756 mmHg 58%
    18:00 +29°C° 0 mm 3 m/S 756 mmHg 68%
    19:00 +28°C° 0 mm 3 m/S 757 mmHg 77%
    20:00 +27°C° 0 mm 2 m/S 757 mmHg 87%
    21:00 +25°C° 0 mm 2 m/S 758 mmHg 96%
    22:00 +25°C° 0 mm 2 m/S 758 mmHg 96%
    23:00 +25°C° 0 mm 2 m/S 757 mmHg 97%

    Morgen, 10 April, Freitag

    Zeit Temperatur Niederschläge Wind Luftdruck Luftfeuchtigkeit
    00:00 +25°C° 0 mm 2 m/S 757 mmHg 97%
    01:00 +25°C° 0 mm 2 m/S 757 mmHg 97%
    02:00 +25°C° 0 mm 2 m/S 756 mmHg 97%
    03:00 +25°C° 0 mm 1 m/S 756 mmHg 97%
    04:00 +25°C° 0 mm 1 m/S 756 mmHg 96%
    05:00 +25°C° 0 mm 1 m/S 756 mmHg 96%
    06:00 +25°C° 0 mm 1 m/S 757 mmHg 95%
    07:00 +27°C° 0 mm 2 m/S 757 mmHg 84%
    08:00 +30°C° 0 mm 2 m/S 758 mmHg 73%
    09:00 +33°C° 0 mm 3 m/S 759 mmHg 62%
    10:00 +34°C° 0 mm 3 m/S 758 mmHg 55%
    11:00 +36°C° 0 mm 4 m/S 758 mmHg 49%
    12:00 +37°C° 0 mm 4 m/S 757 mmHg 42%
    13:00 +37°C° 0 mm 4 m/S 757 mmHg 43%
    14:00 +37°C° 0 mm 4 m/S 756 mmHg 45%
    15:00 +36°C° 0 mm 4 m/S 755 mmHg 46%
    16:00 +34°C° 0 mm 4 m/S 755 mmHg 56%
    17:00 +31°C° 0 mm 3 m/S 756 mmHg 66%
    18:00 +29°C° 0 mm 3 m/S 756 mmHg 76%
    19:00 +28°C° 0 mm 2 m/S 756 mmHg 83%
    20:00 +27°C° 0 mm 2 m/S 757 mmHg 90%
    21:00 +26°C° 0 mm 2 m/S 758 mmHg 97%
    22:00 +25°C° 0 mm 2 m/S 758 mmHg 97%
    23:00 +25°C° 0 mm 2 m/S 757 mmHg 97%

    übermorgen, 11 April, Samstag

    Zeit Temperatur Niederschläge Wind Luftdruck Luftfeuchtigkeit
    00:00 +25°C° 0 mm 2 m/S 757 mmHg 97%
    01:00 +25°C° 0 mm 2 m/S 757 mmHg 96%
    02:00 +25°C° 0 mm 2 m/S 757 mmHg 95%
    03:00 +25°C° 0 mm 1 m/S 757 mmHg 95%
    04:00 +25°C° 0 mm 2 m/S 757 mmHg 95%
    05:00 +25°C° 0 mm 2 m/S 757 mmHg 95%
    06:00 +25°C° 0 mm 2 m/S 758 mmHg 96%
    07:00 +27°C° 0 mm 2 m/S 758 mmHg 85%
    08:00 +30°C° 0 mm 3 m/S 758 mmHg 73%
    09:00 +34°C° 0 mm 4 m/S 759 mmHg 62%
    10:00 +35°C° 0 mm 4 m/S 758 mmHg 56%
    11:00 +36°C° 0 mm 4 m/S 758 mmHg 50%
    12:00 +37°C° 0 mm 5 m/S 758 mmHg 44%
    13:00 +37°C° 0 mm 5 m/S 757 mmHg 45%
    14:00 +36°C° 0 mm 5 m/S 756 mmHg 45%
    15:00 +36°C° 0 mm 5 m/S 756 mmHg 45%
    16:00 +34°C° 0 mm 4 m/S 756 mmHg 55%
    17:00 +32°C° 0 mm 4 m/S 756 mmHg 65%
    18:00 +29°C° 0 mm 3 m/S 756 mmHg 74%
    19:00 +28°C° 0 mm 3 m/S 757 mmHg 80%
    20:00 +27°C° 0 mm 3 m/S 757 mmHg 86%
    21:00 +26°C° 0 mm 3 m/S 758 mmHg 93%
    22:00 +27°C° 0 mm 3 m/S 757 mmHg 90%
    23:00 +27°C° 0 mm 3 m/S 757 mmHg 88%

    12 April, Sonntag

    Zeit Temperatur Niederschläge Wind Luftdruck Luftfeuchtigkeit
    00:00 +27°C° 0 mm 3 m/S 757 mmHg 86%
    01:00 +28°C° 0 mm 3 m/S 757 mmHg 83%
    02:00 +29°C° 0 mm 4 m/S 756 mmHg 79%
    03:00 +29°C° 0 mm 4 m/S 756 mmHg 76%
    04:00 +29°C° 0 mm 4 m/S 756 mmHg 77%
    05:00 +29°C° 0 mm 4 m/S 756 mmHg 78%
    06:00 +29°C° 0 mm 4 m/S 756 mmHg 79%
    07:00 +30°C° 0 mm 5 m/S 757 mmHg 72%
    08:00 +33°C° 0 mm 5 m/S 757 mmHg 66%
    09:00 +35°C° 0 mm 5 m/S 758 mmHg 59%
    10:00 +36°C° 0 mm 6 m/S 757 mmHg 55%
    11:00 +38°C° 0 mm 6 m/S 757 mmHg 51%
    12:00 +39°C° 0 mm 6 m/S 756 mmHg 48%
    13:00 +38°C° 0 mm 6 m/S 756 mmHg 48%
    14:00 +38°C° 0 mm 6 m/S 755 mmHg 49%
    15:00 +38°C° 0 mm 6 m/S 754 mmHg 49%
    16:00 +35°C° 0 mm 5 m/S 755 mmHg 57%
    17:00 +33°C° 0 mm 4 m/S 755 mmHg 65%
    18:00 +30°C° 0 mm 4 m/S 755 mmHg 72%
    19:00 +29°C° 0 mm 4 m/S 756 mmHg 77%
    20:00 +29°C° 0 mm 4 m/S 756 mmHg 81%
    21:00 +28°C° 0 mm 4 m/S 757 mmHg 86%
    22:00 +28°C° 0 mm 3 m/S 757 mmHg 86%
    23:00 +28°C° 0 mm 3 m/S 757 mmHg 87%

    13 April, Montag

    Zeit Temperatur Niederschläge Wind Luftdruck Luftfeuchtigkeit
    00:00 +28°C° 0 mm 3 m/S 757 mmHg 88%
    01:00 +28°C° 0 mm 3 m/S 757 mmHg 89%
    02:00 +28°C° 0 mm 3 m/S 756 mmHg 90%
    03:00 +28°C° 0 mm 2 m/S 756 mmHg 90%
    04:00 +28°C° 0 mm 2 m/S 756 mmHg 89%
    05:00 +29°C° 0 mm 3 m/S 757 mmHg 87%
    06:00 +29°C° 0 mm 3 m/S 757 mmHg 85%
    07:00 +30°C° 0 mm 3 m/S 757 mmHg 79%
    08:00 +31°C° 0 mm 3 m/S 758 mmHg 73%
    09:00 +33°C° 0 mm 3 m/S 759 mmHg 68%
    10:00 +35°C° 0 mm 3 m/S 758 mmHg 62%
    11:00 +36°C° 0 mm 4 m/S 758 mmHg 57%
    12:00 +38°C° 0 mm 4 m/S 758 mmHg 51%
    13:00 +38°C° 0 mm 4 m/S 757 mmHg 50%
    14:00 +38°C° 0 mm 4 m/S 757 mmHg 50%
    15:00 +38°C° 0 mm 4 m/S 756 mmHg 49%
    16:00 +36°C° 0 mm 4 m/S 756 mmHg 56%
    17:00 +34°C° 0 mm 4 m/S 757 mmHg 64%
    18:00 +30°C° 0 mm 4 m/S 757 mmHg 72%
    19:00 +30°C° 0 mm 3 m/S 757 mmHg 76%
    20:00 +29°C° 0 mm 3 m/S 758 mmHg 81%
    21:00 +28°C° 0 mm 3 m/S 759 mmHg 85%
    22:00 +27°C° 0 mm 2 m/S 759 mmHg 87%
    23:00 +27°C° 0 mm 2 m/S 759 mmHg 89%

    14 April, Dienstag

    Zeit Temperatur Niederschläge Wind Luftdruck Luftfeuchtigkeit
    00:00 +27°C° 0 mm 1 m/S 759 mmHg 91%
    01:00 +27°C° 0 mm 2 m/S 759 mmHg 90%
    02:00 +27°C° 0 mm 2 m/S 758 mmHg 89%
    03:00 +28°C° 0 mm 2 m/S 758 mmHg 88%
    04:00 +27°C° 0 mm 2 m/S 758 mmHg 89%
    05:00 +27°C° 0 mm 2 m/S 758 mmHg 89%
    06:00 +27°C° 0 mm 3 m/S 759 mmHg 89%
    07:00 +29°C° 0 mm 3 m/S 759 mmHg 81%
    08:00 +30°C° 0 mm 3 m/S 759 mmHg 72%
    09:00 +33°C° 0 mm 3 m/S 760 mmHg 64%
    10:00 +34°C° 0 mm 3 m/S 759 mmHg 57%
    11:00 +36°C° 0 mm 4 m/S 759 mmHg 50%
    12:00 +37°C° 0 mm 4 m/S 759 mmHg 43%
    13:00 +37°C° 0 mm 4 m/S 758 mmHg 43%
    14:00 +36°C° 0 mm 4 m/S 757 mmHg 43%
    15:00 +36°C° 0 mm 4 m/S 757 mmHg 43%
    16:00 +34°C° 0 mm 4 m/S 757 mmHg 52%
    17:00 +31°C° 0 mm 3 m/S 757 mmHg 60%
    18:00 +29°C° 0 mm 3 m/S 757 mmHg 68%
    19:00 +28°C° 0 mm 3 m/S 758 mmHg 77%
    20:00 +27°C° 0 mm 2 m/S 758 mmHg 85%
    21:00 +25°C° 0 mm 2 m/S 759 mmHg 93%
    22:00 +25°C° 0 mm 2 m/S 759 mmHg 92%
    23:00 +25°C° 0 mm 2 m/S 759 mmHg 92%
    Mehr zeigen